Weather History for Glencoe, MN

Change the Weather History Date:

Wednesday, February 6, 2013

  Actual Average (KHCD) Record (KHCD)
Temperature  
Mean Temperature 14 °F -  
Max Temperature 29 °F 21 °F 53 °F (2002)
Min Temperature 0 °F 1 °F -25 °F (1982)
Degree Days  
Heating Degree Days 50    
Moisture  
Dew Point 13 °F    
Average Humidity 85    
Maximum Humidity 90    
Minimum Humidity 74    
Precipitation  
Precipitation 0.00 in - - ()
Sea Level Pressure  
Sea Level Pressure 29.97 in    
Wind  
Wind Speed 5 mph (East)    
Max Wind Speed 15 mph    
Max Gust Speed -    
Visibility 9 miles    
Events Snow    
Averages and records for this station are not official NWS values.
T = Trace of Precipitation, MM = Missing Value Source: NWS Daily Summary

Daily Weather History Graph

Daily Weather History Graph

Search for Another Location

Airport:

Trip Planner

Search our weather history database for the weather conditions in past years. The results will help you decide how hot, cold, wet, or windy it might be!

Date:

Astronomy

Feb. 06, 2013 Rise Set
Actual Time 7:29 AM CST 5:32 PM CST
Civil Twilight 6:58 AM CST 6:03 PM CST
Nautical Twilight 6:23 AM CST 6:37 PM CST
Astronomical Twilight 5:49 AM CST 7:11 PM CST
Moon 4:18 AM CST (2/6) 1:46 PM CST (2/6)
Length of Visible Light 11h 04m
Length of Day
10h 03m
Waning Crescent, 17% of the Moon is Illuminated
Feb 6
Waning Crescent
Feb 10
New
Feb 17
First Quarter
Feb 25
Full
Mar 4
Last Quarter

Hourly Weather History & Observations

Time (CST) Temp. Windchill Dew Point Humidity Pressure Visibility Wind Dir Wind Speed Gust Speed Precip Events Conditions
12:16 AM -0.6 °F - -3.6 °F 87% 30.07 in 10.0 mi Calm Calm - N/A   Scattered Clouds
12:36 AM 3.0 °F -6.4 °F -0.0 °F 87% 30.08 in 10.0 mi WSW 4.6 mph - N/A   Overcast
1:16 AM 4.6 °F -2.5 °F 1.8 °F 88% 30.08 in 10.0 mi WSW 3.5 mph - N/A   Overcast
1:36 AM 5.4 °F -1.7 °F 2.3 °F 87% 30.08 in 10.0 mi WSW 3.5 mph - N/A   Overcast
1:56 AM 5.5 °F - 2.7 °F 88% 30.07 in 10.0 mi Calm Calm - N/A   Overcast
2:36 AM 4.3 °F - 1.4 °F 88% 30.08 in 10.0 mi Calm Calm - N/A   Scattered Clouds
2:56 AM 4.1 °F - 1.2 °F 88% 30.07 in 10.0 mi Calm Calm - N/A   Clear
3:16 AM 3.2 °F - -0.2 °F 86% 30.05 in 10.0 mi Calm Calm - N/A   Clear
3:36 AM -0.0 °F - -3.3 °F 86% 30.05 in 10.0 mi Calm Calm - N/A   Clear
3:55 AM 1.8 °F -5.8 °F -1.7 °F 86% 30.04 in 10.0 mi ESE 3.5 mph - N/A   Scattered Clouds
4:16 AM 0.7 °F - -2.4 °F 87% 30.04 in 10.0 mi Calm Calm - N/A   Overcast
4:36 AM 2.5 °F -5.0 °F -0.6 °F 87% 30.04 in 10.0 mi South 3.5 mph - N/A   Overcast
4:55 AM 4.5 °F -2.7 °F 1.6 °F 88% 30.05 in 10.0 mi South 3.5 mph - N/A   Overcast
5:16 AM 4.6 °F -4.5 °F 1.8 °F 88% 30.06 in 10.0 mi South 4.6 mph - N/A   Overcast
5:36 AM 5.0 °F -4.1 °F 2.1 °F 88% 30.07 in 10.0 mi South 4.6 mph - N/A   Overcast
5:56 AM 5.5 °F - 2.7 °F 88% 30.06 in 10.0 mi Calm Calm - N/A   Overcast
6:16 AM 6.8 °F -0.1 °F 3.9 °F 88% 30.04 in 10.0 mi ESE 3.5 mph - N/A   Overcast
6:36 AM 7.5 °F 0.8 °F 4.8 °F 89% 30.04 in 10.0 mi East 3.5 mph - N/A   Overcast
7:16 AM 9.3 °F 2.8 °F 6.6 °F 89% 30.04 in 10.0 mi SE 3.5 mph - N/A   Overcast
7:36 AM 10.2 °F 2.0 °F 7.5 °F 89% 30.04 in 10.0 mi SE 4.6 mph - N/A   Overcast
7:56 AM 11.1 °F 3.1 °F 8.2 °F 88% 30.04 in 10.0 mi SE 4.6 mph - N/A   Overcast
8:16 AM 12.0 °F 1.5 °F 8.6 °F 86% 30.04 in 10.0 mi ESE 6.9 mph - N/A   Overcast
8:36 AM 12.6 °F 4.8 °F 8.8 °F 85% 30.04 in 10.0 mi ESE 4.6 mph - N/A   Overcast
8:56 AM 14.0 °F 3.9 °F 10.0 °F 84% 30.01 in 10.0 mi East 6.9 mph - N/A   Overcast
9:16 AM 14.9 °F 7.5 °F 10.4 °F 82% 30.03 in 7.0 mi ESE 4.6 mph - N/A Snow Light Snow
9:36 AM 15.8 °F 5.1 °F 11.8 °F 84% 30.03 in 1.8 mi East 8.1 mph - N/A Snow Light Snow
9:56 AM 16.3 °F 4.9 °F 12.9 °F 86% 30.00 in 7.0 mi East 9.2 mph - N/A   Overcast
10:16 AM 16.7 °F 4.5 °F 12.9 °F 85% 30.00 in 10.0 mi East 10.4 mph - N/A   Overcast
10:36 AM 17.6 °F 5.7 °F 13.3 °F 83% 30.00 in 10.0 mi East 10.4 mph - N/A   Overcast
10:56 AM 18.0 °F 4.8 °F 13.5 °F 83% 29.98 in 10.0 mi East 12.7 mph - N/A   Overcast
11:16 AM 18.5 °F 6.1 °F 14.4 °F 84% 29.97 in 10.0 mi East 11.5 mph - N/A   Overcast
11:36 AM 19.9 °F 7.3 °F 14.9 °F 81% 29.97 in 10.0 mi East 12.7 mph - N/A   Overcast
11:56 AM 20.7 °F 7.1 °F 15.8 °F 81% 29.95 in 10.0 mi East 15.0 mph - N/A   Overcast
12:16 PM 21.7 °F 8.5 °F 16.7 °F 81% 29.93 in 10.0 mi East 15.0 mph - N/A   Mostly Cloudy
12:36 PM 24.1 °F 12.0 °F 19.0 °F 81% 29.90 in 10.0 mi East 13.8 mph - N/A   Mostly Cloudy
12:56 PM 26.6 °F 16.2 °F 20.5 °F 78% 29.90 in 10.0 mi East 11.5 mph - N/A   Mostly Cloudy
1:16 PM 28.2 °F 20.2 °F 21.2 °F 75% 29.92 in 10.0 mi East 8.1 mph - N/A   Scattered Clouds
1:36 PM 28.0 °F 19.3 °F 20.8 °F 74% 29.92 in 10.0 mi East 9.2 mph - N/A   Clear
1:56 PM 28.4 °F 20.4 °F 21.6 °F 76% 29.90 in 10.0 mi East 8.1 mph - N/A   Clear
2:16 PM 27.7 °F 19.6 °F 21.6 °F 78% 29.90 in 10.0 mi East 8.1 mph - N/A   Clear
2:36 PM 28.4 °F 20.4 °F 22.1 °F 77% 29.88 in 10.0 mi East 8.1 mph - N/A   Clear
2:56 PM 28.8 °F 20.9 °F 22.6 °F 78% 29.87 in 10.0 mi East 8.1 mph - N/A   Clear
3:16 PM 29.1 °F 20.6 °F 23.0 °F 78% 29.86 in 10.0 mi East 9.2 mph - N/A   Clear
3:36 PM 29.3 °F 21.5 °F 23.5 °F 79% 29.87 in 10.0 mi East 8.1 mph - N/A   Clear
3:56 PM 29.8 °F 22.2 °F 24.3 °F 80% 29.87 in 10.0 mi East 8.1 mph - N/A   Clear
4:16 PM 29.5 °F 21.8 °F 23.7 °F 79% 29.87 in 10.0 mi ENE 8.1 mph - N/A   Clear
4:56 PM 28.0 °F 20.8 °F 22.8 °F 81% 29.87 in 10.0 mi East 6.9 mph - N/A   Clear
5:16 PM 27.9 °F 21.5 °F 23.0 °F 82% 29.87 in 10.0 mi East 5.8 mph - N/A   Clear
5:36 PM 27.3 °F 19.1 °F 22.6 °F 83% 29.88 in 10.0 mi ENE 8.1 mph - N/A   Clear
5:56 PM 26.2 °F 17.8 °F 21.9 °F 84% 29.88 in 7.0 mi ENE 8.1 mph - N/A   Clear
6:16 PM 26.1 °F 17.6 °F 21.7 °F 84% 29.89 in 7.0 mi ENE 8.1 mph - N/A   Clear
6:36 PM 25.7 °F 18.0 °F 21.6 °F 84% 29.89 in 7.0 mi East 6.9 mph - N/A   Clear
6:56 PM 25.5 °F 16.9 °F 21.4 °F 84% 29.89 in 7.0 mi ENE 8.1 mph - N/A   Clear
7:16 PM 24.8 °F 15.3 °F 21.0 °F 86% 29.90 in 7.0 mi ENE 9.2 mph - N/A   Clear
7:36 PM 24.6 °F 15.8 °F 20.7 °F 85% 29.90 in 7.0 mi ENE 8.1 mph - N/A   Clear
7:56 PM 24.6 °F 20.3 °F 20.5 °F 84% 29.91 in 7.0 mi NE 3.5 mph - N/A   Clear
8:16 PM 23.7 °F 19.3 °F 20.1 °F 86% 29.91 in 7.0 mi NE 3.5 mph - N/A   Clear
8:36 PM 23.0 °F 18.4 °F 19.9 °F 88% 29.92 in 7.0 mi NE 3.5 mph - N/A   Clear
8:56 PM 22.6 °F - 19.4 °F 87% 29.92 in 7.0 mi Calm Calm - N/A   Clear
9:15 PM 22.1 °F 17.4 °F 19.2 °F 89% 29.92 in 7.0 mi ENE 3.5 mph - N/A   Clear
9:36 PM 21.9 °F 17.2 °F 19.2 °F 89% 29.92 in 7.0 mi NE 3.5 mph - N/A   Clear
9:56 PM 21.7 °F 15.5 °F 19.0 °F 89% 29.92 in 7.0 mi North 4.6 mph - N/A   Clear
10:16 PM 21.2 °F 16.4 °F 18.1 °F 88% 29.94 in 5.0 mi North 3.5 mph - N/A   Clear
10:36 PM 20.7 °F 13.0 °F 18.1 °F 90% 29.94 in 5.0 mi North 5.8 mph - N/A   Clear
10:56 PM 20.1 °F 13.6 °F 17.4 °F 89% 29.93 in 5.0 mi NNE 4.6 mph - N/A   Clear
11:16 PM 18.5 °F 10.4 °F 15.8 °F 89% 29.93 in 5.0 mi NNE 5.8 mph - N/A   Clear
11:36 PM 18.1 °F 10.0 °F 15.4 °F 89% 29.95 in 5.0 mi North 5.8 mph - N/A   Clear
11:55 PM 17.6 °F 8.2 °F 14.9 °F 89% 29.95 in 5.0 mi North 6.9 mph - N/A   Clear